La Pastourelle - 20/05/2016

Raid VTT des 3 vallées 60 Km


Pl Do. Nom - Surname Prénom - Name S-Cat /cat TEMPS - Time Km/h /sx
1 6803 PELE SEBASTIEN MMASTER1 1 03:02:09 19,76 1
2 6315 GAUTHIER ANTHONY MMASTER1 2 03:02:45 19,70 2
3 6391 VIALAT ERIC MMASTER1 3 03:07:32 19,20 3
4 6336 BOMBARDO GREGORY MMASTER1 4 03:18:28 18,14 4
5 6394 COLLOT ROMAIN MMASTER1 5 03:21:01 17,91 5
6 6334 SERIEYS BERTRAND MJU 1 03:25:03 17,56 6
7 6078 TERMENIERE VALENTIN MES 1 03:26:46 17,41 7
8 6392 RANVIAL REMY MES 2 03:29:17 17,20 8
9 6805 ROGIER VINCENT MMASTER1 6 03:29:36 17,18 9
10 6184 MONIER GUILLAUME MMASTER1 7 03:31:28 17,02 10
11 6338 ENJOLRAS VALENTIN MES 3 03:31:55 16,99 11
12 6809 SAINT ANTOINE JULIEN MES 4 03:32:00 16,98 12
13 6808 LACOSTE DAVID MMASTER1 8 03:33:40 16,85 13
14 6345 GAULANDEAU JULIEN MMASTER1 9 03:34:03 16,82 14
15 6381 PARISOT ALEXANDRE MSE 1 03:35:15 16,72 15
16 6335 SERIEYS FRANCIS MMASTER2 1 03:35:49 16,68 16
17 6124 MALLEGOL DIDIER MMASTER3 1 03:35:51 16,68 17
18 6025 DUGAT CLÉMENT MSE 2 03:35:56 16,67 18
19 6347 IRIGOYEN PATRICK MMASTER3 2 03:36:24 16,63 19
20 6222 TRIOULLIER GWENAEL MMASTER2 2 03:36:29 16,63 20
21 6286 PASCAREL ROMAIN MMASTER1 10 03:38:53 16,45 21
22 6322 REGIS CORENTIN MES 5 03:39:59 16,36 22
23 6329 PAGÈS VINCENT MMASTER1 11 03:40:08 16,35 23
24 6341 ARNOUX MICHAEL MMASTER1 12 03:40:51 16,30 24
25 6247 ANGER XAVIER MMASTER2 3 03:42:33 16,18 25
26 6289 CHAUME DAVID MMASTER2 4 03:44:14 16,05 26
27 6249 CONTANT CHRISTOPHE MMASTER2 5 03:45:46 15,94 27
28 6295 DEVAUX LUDOVIC MMASTER1 13 03:45:47 15,94 28
29 6344 MATTON LUCAS MJU 2 03:46:22 15,90 29
30 6183 CHABANAS BRUNO MMASTER1 14 03:46:32 15,89 30
31 6125 BRETAGNOLLE SERGE MMASTER3 3 03:48:33 15,75 31
32 6361 FONTENEAU JEAN-CHARLES MMASTER2 6 03:48:35 15,75 32
33 6116 RUNGOAT MORGAN MMASTER1 15 03:50:18 15,63 33
34 6362 GELY FRANCK MMASTER2 7 03:52:04 15,51 34
35 6279 BIGOT SYLVAIN MMASTER1 16 03:52:25 15,49 35
36 6318 FILLIAT CHRISTIAN MMASTER2 8 03:54:12 15,37 36
37 6288 VEYSSEYRE GILLES MMASTER2 9 03:55:03 15,31 37
38 6324 AURIACOMBE FREDERIC MMASTER2 10 03:55:17 15,30 38
39 6343 TACHOT LAURENT MMASTER2 11 03:55:42 15,27 39
40 6339 MAVEL ALAIN MMASTER2 12 03:56:53 15,20 40
41 6349 DURIF YOHANN MSE 3 03:57:06 15,18 41
42 6071 VERDUN DEWIS MMASTER1 17 03:57:10 15,18 42
43 6340 DA ROCHA JEREMY MMASTER1 18 03:57:13 15,18 43
44 6068 DELMAS GHISLAIN MMASTER2 13 03:57:14 15,17 44
45 6316 LE BOZEC YANNICK MMASTER1 19 03:57:38 15,15 45
46 6257 LAMOUROUX STEPHANE MMASTER2 14 03:58:10 15,11 46
47 6390 SAVAJOLS FLORIAN MSE 4 03:58:57 15,07 47
48 6293 BERGAUD SEBASTIEN MMASTER2 15 03:59:47 15,01 48
49 6303 GRAMONT PATRICE MMASTER2 16 04:00:10 14,99 49
50 6269 CHAMPEVAL FREDERIC MMASTER3 4 04:00:18 14,98 50
51 6358 CHERION BAPTISTE MJU 3 04:02:08 14,87 51
52 6352 MASSALOUX LOIC MJU 4 04:02:11 14,86 52
53 6379 MAZIERES FRED MMASTER2 17 04:02:22 14,85 53
54 6240 ROUSSELLE DIDIER MMASTER2 18 04:03:18 14,80 54
55 6176 MOINGS DAMIEN MMASTER1 20 04:05:21 14,67 55
56 6093 ROUX RAPHAEL MMASTER2 19 04:05:26 14,67 56
57 6134 FAYOLLE PATRICK MMASTER2 20 04:07:56 14,52 57
58 6242 FLOTTE YANNICK MMASTER1 21 04:07:57 14,52 58
59 6096 RABOT GUILLAUME MSE 5 04:09:35 14,42 59
60 6099 POUSSIN FLAVIEN MMASTER2 21 04:09:35 14,42 60
61 6357 HUGUET ALEXIS MJU 5 04:09:36 14,42 61
62 6290 PALADE ANTHONY MSE 6 04:09:41 14,42 62
63 6388 LAHONDES CEDRIC MMASTER1 22 04:09:44 14,42 63
64 6020 DUMAIT ERIC MMASTER3 5 04:12:20 14,27 64
65 6353 CALVAGRAC NICOLAS MMASTER2 22 04:12:40 14,25 65
66 6100 FONTENAY MICHEL MMASTER3 6 04:13:28 14,20 66
67 6122 BOURDILLON GILLES - MMASTER1 23 04:14:30 14,14 67
68 6190 SERABIAN LIONEL MMASTER2 23 04:17:12 14,00 68
69 6207 SEGUIN ANTOINE MMASTER1 24 04:21:49 13,75 69
70 6016 LEYME JEREMY MMASTER1 25 04:21:52 13,75 70
71 6355 CHAPUT ELIOTT MJU 6 04:23:27 13,66 71
72 6804 DELCOURT ALAIN MMASTER2 24 04:23:47 13,65 72
73 6140 CAILLOT CEDRIC MSE 7 04:25:47 13,54 73
74 6177 PIC DANIEL MMASTER2 25 04:26:01 13,53 74
75 6076 BARBIER CYRIL MSE 8 04:26:08 13,53 75
76 6351 MASSALOUX SEBASTIEN MMASTER2 26 04:26:39 13,50 76
77 6223 LAGORCE JEAN-CHRISTOPHE MMASTER3 7 04:27:13 13,47 77
78 6186 CHARRIER SAMUEL MMASTER1 26 04:27:25 13,46 78
79 6095 LOPEZ MORGAN MSE 9 04:27:30 13,46 79
80 6811 RAPIN JEAN CHRISTOPHE MMASTER1 27 04:27:32 13,46 80
81 6194 BARBIER SIMON MSE 10 04:27:44 13,45 81
82 6356 CHAPUT DENIS MMASTER3 8 04:27:52 13,44 82
83 6395 HUILLET FABIEN MMASTER2 27 04:28:01 13,43 83
84 6806 SABATIER THIBAULT MSE 11 04:29:49 13,34 84
85 6128 ESPINASSE LOUIS MSE 12 04:29:52 13,34 85
86 6346 COUSSI MATTHIEU MMASTER1 28 04:30:02 13,33 86
87 6276 TESNIERE JULIEN MMASTER1 29 04:31:43 13,25 87
88 6326 CUSSAC JEAN-DAVID MMASTER2 28 04:32:08 13,23 88
89 6330 SANCIAUT XAVIER MMASTER2 29 04:32:54 13,19 89
90 6155 RICHARDOT CHRISTOPHE MMASTER2 30 04:33:51 13,15 90
91 6035 PIMPIN NICOLAS MMASTER1 30 04:34:57 13,09 91
92 6082 DA CUNHA HUMBERTO MMASTER1 31 04:35:26 13,07 92
93 6037 CALMELS GILLES MMASTER2 31 04:35:52 13,05 93
94 6360 CHERION DENIS MMASTER2 32 04:36:57 13,00 94
95 6182 CASSARD GAUTHIER MES 6 04:37:00 13,00 95
96 6354 JANOT LOUIS MJU 7 04:37:51 12,96 96
97 6013 BERNIER STÉPHANE MMASTER2 33 04:37:55 12,95 97
98 6369 BAC ALEXA MMASTER2 34 04:39:17 12,89 98
99 6285 POMMIER YVES MMASTER1 32 04:39:21 12,89 99
100 6150 FAURE NICOLAS MMASTER2 35 04:39:50 12,86 100
101 6259 LAMOUROUX GUILLAUME MMASTER1 33 04:40:04 12,85 101
102 6056 LAFITTE JULIETTE FSE 1 04:40:49 12,82 1
103 6397 VIVIER BERTRAND MMASTER3 9 04:41:26 12,79 102
104 6384 CRUMEYROLLE JEAN LOUIS MMASTER3 10 04:41:30 12,79 103
105 6022 HAUDECOEUR ARNAUD MSE 13 04:43:10 12,71 104
106 6282 HEBERT XAVIER MMASTER2 36 04:45:07 12,63 105
107 6195 ROSSANDER NICOLAS MMASTER1 34 04:45:25 12,61 106
108 6135 TAILLEBOIS LAURENT MMASTER2 37 04:45:29 12,61 107
109 6217 BOREL DAVID MMASTER2 38 04:46:30 12,56 108
110 6179 ARNAUD PASCAL MMASTER3 11 04:47:59 12,50 109
111 6226 CAPEL FREDERIC MMASTER1 35 04:48:01 12,50 110
112 6178 LECLERC THIERRY MMASTER2 39 04:48:02 12,50 111
113 6064 CANTON CLÉMENT MSE 14 04:48:10 12,49 112
114 6048 BOURBONNAIS FRÉDÉRIC MMASTER2 40 04:48:23 12,48 113
115 6062 PONS ERIC MMASTER1 36 04:48:26 12,48 114
116 6198 CARNEIRO CARLOS MMASTER2 41 04:48:42 12,47 115
117 6212 BAUDOUNET SINDY FMASTER1 1 04:49:02 12,45 2
118 6210 LAVENU MATHIEU MMASTER1 37 04:49:03 12,45 116
119 6363 REMY JULIEN MSE 15 04:49:04 12,45 117
120 6108 CHARTRIN CHRISTOPHE MMASTER2 42 04:49:06 12,45 118
121 6034 VIGNAU PATRICK MMASTER2 43 04:50:00 12,41 119
122 6801 DORIAN JEAN MNC 1 04:50:09 12,41 120
123 6337 GAYNON JEAN LUC MMASTER3 12 04:50:50 12,38 121
124 6312 CHASSAING MICKAEL MMASTER1 38 04:51:20 12,36 122
125 6305 TESTUD JULIEN MMASTER1 39 04:51:21 12,36 123
126 6139 GRANDINETTI SANDRA FMASTER1 2 04:51:22 12,36 3
127 6270 CHABREUIL ERIC MMASTER2 44 04:51:23 12,35 124
128 6161 RAYMOND GUILLAUME MMASTER1 40 04:54:23 12,23 125
129 6216 SIKULA JACQUES MMASTER2 45 04:54:30 12,22 126
130 6146 BARANOWSKI DENIS MMASTER2 46 04:55:04 12,20 127
131 6138 LAGET MAXIME MMASTER1 41 04:55:17 12,19 128
132 6137 LAGET MICHEL MMASTER3 13 04:55:19 12,19 129
133 6264 IPOLITO BENOIT MMASTER1 42 04:57:53 12,08 130
134 6143 MUCIGNATO FRANCK MMASTER1 43 04:58:50 12,05 131
135 6213 MONTIMART ROMAIN MMASTER1 44 04:59:07 12,03 132
136 6123 BOURDILLON YANN MMASTER1 45 04:59:08 12,03 133
137 6248 BRETON JEAN-MARC MMASTER3 14 05:02:24 11,90 134
138 6224 PAPON CHRISTIAN MMASTER3 15 05:02:28 11,90 135
139 6261 BRETON CHARLES MES 7 05:03:10 11,87 136
140 6802 RIOM JEAN BAPTISTE MMASTER1 46 05:03:14 11,87 137
141 6163 DUFAYET PIERRE MMASTER1 47 05:03:21 11,87 138
142 6342 BANCHAREL FREDERICK MMASTER1 48 05:03:42 11,85 139
143 6049 COTTRET NICOLAS MMASTER2 47 05:03:55 11,85 140
144 6029 ELLIOTT JASON MMASTER2 48 05:04:51 11,81 141
145 6810 BELVEZE CHRISTOPHE MMASTER1 49 05:07:36 11,70 142
146 6291 DELAVAULT GILLES MMASTER3 16 05:08:13 11,68 143
147 6129 ESPINASSE GILLES MMASTER3 17 05:08:56 11,65 144
148 6252 HEBRARD GERAUD MMASTER3 18 05:09:10 11,64 145
149 6364 LABBE GREGORY MMASTER1 50 05:10:31 11,59 146
150 6151 MAIRESSE JEAN CHARLES MMASTER1 51 05:12:37 11,52 147
151 6079 NAYAGOM ERIC MMASTER2 49 05:13:56 11,47 148
152 6398 POUDEROUX PHILIPPE MMASTER2 50 05:14:53 11,43 149
153 6292 TURIERE NICOLAS MMASTER1 52 05:15:17 11,42 150
154 6114 MORLON PIERRE MMASTER3 19 05:15:25 11,41 151
155 6115 LAFEUILLE JULIEN MMASTER2 51 05:15:34 11,41 152
156 6374 BAC OLIVIER MMASTER2 52 05:15:36 11,41 153
157 6047 LOUBIERES JEAN PAUL MMASTER2 53 05:16:10 11,39 154
158 6254 LAURETTE STÉPHANE MMASTER2 54 05:16:28 11,38 155
159 6111 MAJEK ALBAN MSE 16 05:16:34 11,37 156
160 6365 BENEZIT HUGO MJU 8 05:16:47 11,36 157
161 6234 MARQUETON DIDIER MMASTER3 20 05:17:02 11,35 158
162 6370 EMIEL PIERRE MJU 9 05:17:04 11,35 159
163 6052 FOURNIER MAXIME MMASTER1 53 05:21:01 11,21 160
164 6251 JOANNY JULIEN MMASTER1 54 05:21:47 11,19 161
165 6250 GENIX OLIVIER MMASTER3 21 05:21:58 11,18 162
166 6368 AUBERTIN JEAN PIERRE MMASTER3 22 05:22:09 11,17 163
167 6202 FRAYSSE STÉPHANE MMASTER2 55 05:22:11 11,17 164
168 6081 GUIHARD PHILIPPE MMASTER3 23 05:22:53 11,15 165
169 6117 BREGET LAUREN T MMASTER2 56 05:22:54 11,15 166
170 6036 AUZELOUX JEROME MMASTER2 57 05:22:58 11,15 167
171 6039 ROQUETANIERE OLIVIER MMASTER2 58 05:23:00 11,15 168
172 6284 HUGON ANTOINE MMASTER1 55 05:23:34 11,13 169
173 6277 PERRIÈRE WILLIAM MMASTER1 56 05:25:09 11,07 170
174 6278 MAINIE XAVIER MMASTER1 57 05:25:12 11,07 171
175 6211 ISSERTES AURÉLIEN MMASTER1 58 05:25:52 11,05 172
176 6181 SALABERT MAXIME MJU 10 05:25:53 11,05 173
177 6321 VINCENT XAVIER MSE 17 05:26:07 11,04 174
178 6296 DELMAS MICHEL MMASTER3 24 05:26:36 11,02 175
179 6256 DELOSIERE FREDERIC MMASTER1 59 05:27:09 11,00 176
180 6208 DUVERNEIX JEAN-LOUIS MMASTER3 25 05:27:48 10,98 177
181 6188 LAPLACE JULIEN MMASTER1 60 05:27:58 10,98 178
182 6152 BARBALONGA LIONEL MMASTER2 59 05:27:59 10,98 179
183 6807 LHERITIER ALAIN MMASTER3 26 05:28:06 10,97 180
184 6109 BRUNAUD LOIC MSE 18 05:29:21 10,93 181
185 6301 DELORT PIERRE MMASTER2 60 05:29:32 10,92 182
186 6393 BROUSSARD VINCENT MMASTER1 61 05:29:47 10,92 183
187 6302 DELORT SOPHIE FMASTER2 1 05:29:48 10,92 4
188 6058 LICHTLE PATRICK MMASTER2 61 05:32:30 10,83 184
189 6059 CARTEL GERALD MMASTER2 62 05:32:30 10,83 185
190 6332 VERSEPUECH BRUCE MMASTER2 63 05:32:51 10,82 186
191 6243 CHOUVIAT CEDRIC MMASTER1 62 05:33:31 10,79 187
192 6221 PLANET EMMNUEL MMASTER2 64 05:33:35 10,79 188
193 6255 ROUSSERIE LAURENT MMASTER2 65 05:33:36 10,79 189
194 6158 MIRAMAND BAPTISTE MSE 19 05:33:59 10,78 190
195 6325 BOUTTEILLER CHRISTOPHE MMASTER3 27 05:34:04 10,78 191
196 6377 COUVE MATHIEU MMASTER1 63 05:35:16 10,74 192
197 6380 ROUSSET ERIC MMASTER2 66 05:37:33 10,66 193
198 6120 PASQUET DAVID MMASTER1 64 05:37:47 10,66 194
199 6258 BARRIER ARNAUD MES 8 05:39:20 10,61 195
200 6386 CHABANAS ALAIN MMASTER1 65 05:39:20 10,61 196
201 6107 COSTE OLIVIER MMASTER2 67 05:41:04 10,55 197
202 6074 VRAGNIAU DAVID MMASTER1 66 05:41:07 10,55 198
203 6229 COLAS JOSSELIN MMASTER2 68 05:42:55 10,50 199
204 6055 GRILLET BENOIT MMASTER1 67 05:43:09 10,49 200
205 6060 GUINEL GILLES MMASTER3 28 05:43:20 10,48 201
206 6199 MOURBRUN CHRISTOPHE MMASTER2 69 05:43:41 10,47 202
207 6185 CAMBON STEPHANE MMASTER2 70 05:43:55 10,47 203
208 6203 MAYONOBE JEROME MMASTER2 71 05:43:57 10,47 204
209 6281 LAPORTE LAURENT MMASTER1 68 05:44:09 10,46 205
210 6121 MARTIN FLORENT MMASTER2 72 05:44:13 10,46 206
211 6299 BOUCHET ARNAUD MMASTER1 69 05:44:33 10,45 207
212 6298 TOUZET NICOLAS MMASTER1 70 05:44:41 10,44 208
213 6297 TOUZET EMILIE FMASTER1 3 05:44:44 10,44 5
214 6310 CHADEBEC BERNARD MMASTER3 29 05:45:46 10,41 209
215 6187 MASSERON DAMIEN MSE 20 05:52:07 10,22 210
216 6040 PLENECASSAGNE YANNICK MMASTER2 73 05:52:11 10,22 211
217 6372 NOLIN NICOLAS MMASTER1 71 05:53:15 10,19 212
218 6328 FAVIÈRE DAVID MMASTER1 72 05:54:05 10,17 213
219 6101 DECOURTY HERVÉ MMASTER2 74 05:54:14 10,16 214
220 6102 COCHIN THIERRY MMASTER2 75 05:54:31 10,15 215
221 6246 CLEMENSAT DANIEL MMASTER3 30 05:57:17 10,08 216
222 6031 MEYNIEL BRUNO MMASTER2 76 05:58:10 10,05 217
223 6396 STAWINOGA MALAGORZATA FMASTER1 4 05:58:16 10,05 6
224 6283 MATHIEU JEAN FRANCOIS MMASTER2 77 05:59:51 10,00 218
225 6032 LAPORTE FRANCIS MMASTER1 73 06:00:17 9,99 219
226 6274 PONS PASCAL MMASTER2 78 06:01:00 9,97 220
227 6070 ROUIL PASCAL MMASTER2 79 06:05:13 9,86 221
228 6091 BONNEFON ALAIN MMASTER3 31 06:05:33 9,85 222
229 6209 MALCUS JEAN MICHEL MMASTER2 80 06:05:34 9,85 223
230 6200 FOURNET PHILIPPE MMASTER3 32 06:05:45 9,84 224
231 6160 CUBIZOLLE CHRISTOPHE MMASTER1 74 06:06:11 9,83 225
232 6157 SEMBILLE THOMAS MMASTER1 75 06:06:12 9,83 226
233 6072 BERNARD PATRICK MMASTER3 33 06:07:10 9,80 227
234 6075 HERBETH JEAN-MARC MMASTER3 34 06:07:37 9,79 228
235 6319 ROCHE CHRISTOPHE MMASTER2 81 06:07:47 9,79 229
236 6323 POMMIER PATRICE MMASTER2 82 06:07:48 9,79 230
237 6314 CHARLAT CHRISTOPHE MMASTER2 83 06:07:52 9,79 231
238 6373 CHATEAUNEUF RICHARD MMASTER2 84 06:07:54 9,78 232
239 6265 DEFFAINS DAVID MMASTER1 76 06:08:21 9,77 233
240 6233 MAUSSANG ERIC MMASTER3 35 06:08:39 9,76 234
241 6273 MORIN SEBASTIEN MMASTER2 85 06:10:29 9,72 235
242 6230 GEMMERLE ANTOINE MMASTER1 77 06:11:22 9,69 236
243 6228 CLUZEAU JEROME MMASTER1 78 06:11:24 9,69 237
244 6382 MARJOU FLORENT MMASTER2 86 06:12:02 9,68 238
245 6287 ETAVARD CHRISTOPHE MMASTER1 79 06:12:37 9,66 239
246 6262 ETAVARD ANTHONY MMASTER1 80 06:12:54 9,65 240
247 6010 TENART GUILLAUME MMASTER1 81 06:16:49 9,55 241
248 6204 PAGÈS RÉGIS MMASTER2 87 06:20:40 9,46 242
249 6033 MATRAY CLÉMENT MSE 21 06:22:52 9,40 243
250 6057 DAY CHRISTOPHE MMASTER1 82 06:26:46 9,31 244
251 6061 RIBEIRO CARLOS MMASTER2 88 06:26:49 9,31 245
252 6156 CHLEFFER FREDERIC MMASTER1 83 06:29:04 9,25 246
253 6304 LAPEYRE HERVÉ MMASTER3 36 06:32:12 9,18 247
254 6092 DABURON PASCAL MMASTER3 37 06:33:51 9,14 248
255 6253 NOUVET GUY MMASTER3 38 06:33:53 9,14 249
256 6087 PALLU THIERRY MMASTER3 39 06:33:55 9,14 250
257 6311 RIANT SEBASTIEN MMASTER2 89 06:34:40 9,12 251
258 6147 BOYET BENJAMIN MMASTER1 84 06:34:51 9,12 252
259 6232 IMBERDIS LAURENCE FMASTER2 2 06:36:00 9,09 7
260 6231 IMBERDIS PASCAL MMASTER2 90 06:36:02 9,09 253
261 6105 WATTIER FLORIAN MSE 22 06:36:13 9,09 254
262 6041 QUINTARD PHILIPPE MMASTER3 40 06:36:53 9,07 255
263 6266 MAS JEAN-LUC MMASTER2 91 06:37:11 9,06 256
264 6201 AUMONIER RICHARD MMASTER2 92 06:37:17 9,06 257
265 6030 COLLIN JEAN YVES MMASTER3 41 06:37:35 9,05 258
266 6239 LAYGUES STEPHANE MMASTER2 93 06:39:20 9,01 259
267 6197 ANDRAULT MÉLINA FMASTER1 5 06:41:31 8,97 8
268 6089 ROLLAND LUDOVIC MMASTER2 94 06:42:43 8,94 260
269 6084 JULLEAU LOIC MMASTER2 95 06:44:35 8,90 261
270 6196 GUÉRIN SÉBASTIEN MMASTER2 96 06:46:41 8,85 262
271 6009 FAURE JORDAN MMASTER1 85 06:46:58 8,85 263
272 6387 CHABANAS NOËL MMASTER3 42 06:47:48 8,83 264
273 6327 HAVEZ FABIEN MMASTER1 86 06:47:54 8,83 265
274 6023 AUDEBERT MARC MMASTER2 97 06:50:03 8,78 266
275 6007 GILLET EMILIEN MMASTER1 87 06:50:04 8,78 267
276 6002 BRETEAU PHILIPPE MMASTER3 43 06:51:02 8,76 268
277 6215 LEPAGE LAURENT MMASTER2 98 06:52:44 8,72 269
278 6214 MALLET CHRISTOPHE MMASTER2 99 06:52:50 8,72 270
279 6003 BOSSARD GILLES MMASTER3 44 06:53:06 8,71 271
280 6225 TRIBOULOT STANIS MMASTER1 88 06:54:01 8,70 272
281 6175 CANET FREDERIC MMASTER1 89 06:54:02 8,69 273
282 6136 RIGAUDIERE WILLY MMASTER2 100 06:54:03 8,69 274
283 6317 VIBIEN LUCIEN MMASTER3 45 06:54:37 8,68 275
284 6166 BONHOMME JEAN-MARIE MMASTER2 101 06:55:41 8,66 276
285 6162 BALMADIER ERWAN MMASTER2 102 06:55:42 8,66 277
286 6165 COMBES STEPHANE MMASTER2 103 06:55:46 8,66 278
287 6167 VALARIER ALAIN MMASTER2 104 06:55:52 8,66 279
288 6168 TESTUD THIERRY MMASTER2 105 06:55:54 8,66 280
289 6300 CONDON LILIAN MMASTER2 106 06:55:55 8,66 281
290 6164 TEISSANDIER DAVID MMASTER2 107 06:55:58 8,65 282
291 6073 NAIGEON ROMARIC MMASTER1 90 06:56:03 8,65 283
292 6050 BAILLEUL CHRISTIAN MMASTER3 46 06:56:05 8,65 284
293 6063 BARAILLE ERIC MMASTER2 108 06:56:15 8,65 285
294 6051 SAINTOT LIONEL MMASTER2 109 06:56:16 8,65 286
295 6046 HALER PHILIPPE MMASTER3 47 06:56:17 8,65 287
296 6235 MONTHEIL CHRISTOPHE MMASTER2 110 06:56:24 8,65 288
297 6236 BONIFACIE ERIC MMASTER2 111 06:56:30 8,64 289
298 6192 JULIEN HUGUES MMASTER1 91 06:56:49 8,64 290
299 6280 THEOPHILE DOMINIQUE MMASTER2 112 06:56:51 8,64 291
300 6131 BENET BENJAMIN MSE 23 06:57:58 8,61 292
301 6130 SALAVERT PÄUL MSE 24 06:57:59 8,61 293
302 6127 VAILLANT ROMUALD MMASTER1 92 06:58:02 8,61 294
303 6006 CUILLERET ARNAUD MMASTER2 113 06:58:03 8,61 295
304 6241 WITTRANT YOHANN MMASTER1 93 07:02:47 8,51 296
305 6133 PAYARD PASCAL MMASTER3 48 07:02:50 8,51 297
306 6275 LEBRAS LOIC MMASTER1 94 07:03:37 8,50 298
307 6170 BERAUD THIERRY MMASTER2 114 07:06:05 8,45 299
308 6153 MARCHAL JEAN PAUL MMASTER3 49 07:08:14 8,41 300
309 6169 JURY CHRISTOPHE MMASTER2 115 07:08:16 8,41 301
310 6094 EPINAT CHRISTIAN MMASTER2 116 07:08:35 8,40 302
311 6149 FIOGNY JEAN PIERRE MMASTER2 117 07:09:01 8,39 303
312 6154 MARCOUX CHRISTOPHE MMASTER2 118 07:09:13 8,39 304
313 6148 GUITTARD JEAN MICHEL MMASTER3 50 07:13:21 8,31 305
314 6097 JUTON ERIC MMASTER2 119 07:14:25 8,29 306
315 6098 JUTON LAURIANE FES 1 07:14:26 8,29 9
316 6172 PEILLON PATRICK MMASTER2 120 07:14:37 8,28 307
317 6191 DELLOYE RUDI MMASTER2 121 07:15:59 8,26 308
318 6113 VIVIER PHILIPPE MMASTER2 122 07:16:35 8,25 309
319 6083 DAMIENS VIRGINIE FMASTER2 3 07:16:36 8,25 10
320 6383 DUMAS GUILLAUME MSE 25 07:20:03 8,18 310
321 6400 DOUBLEIN NICOLAS MMASTER1 95 07:20:13 8,18 311
322 6268 SEGUIN DAMIEN MMASTER1 96 07:20:16 8,18 312
323 6348 VERNAY SÉBASTIEN MMASTER1 97 07:20:44 8,17 313
324 6313 DOULCET HERVÉ MMASTER1 98 07:20:48 8,17 314
325 6267 BAZIN JULIEN MMASTER1 99 07:20:48 8,17 315
326 6244 CHADEYRON DOMINIQUE MMASTER2 123 07:23:03 8,13 316
327 6245 RENOUX PASCAL MMASTER3 51 07:23:04 8,12 317
328 6086 RIPOCHE ALBAN MSE 26 07:23:07 8,12 318
329 6067 VALLA JEAN CLAUDE MMASTER3 52 07:23:10 8,12 319
330 6085 ABRAN ANTHONY MMASTER1 100 07:23:15 8,12 320
331 6088 MALGUID ROMAIN MMASTER1 101 07:23:31 8,12 321
332 6294 BORDET NICOLAS MMASTER1 102 07:25:39 8,08 322
333 6173 CHAUMIER PATRICK MMASTER2 124 07:25:48 8,08 323
334 6389 RIGAUDIERE FLORIAN MES 9 07:27:54 8,04 324
335 6218 FILIOL THOMAS MES 10 07:27:55 8,04 325
336 6227 AURIAC GILBERT MMASTER3 53 07:28:11 8,03 326
337 6028 PRIOLEAUD JEAN-LUC MMASTER2 125 07:29:37 8,01 327
338 6054 URLI HERVE MMASTER2 126 07:30:47 7,99 328
339 6024 ARNAUD SEBASTIEN MMASTER2 127 07:30:50 7,99 329
340 6053 TEILHET BERNARD MMASTER3 54 07:31:04 7,98 330
341 6333 BASTIDE DAVID MMASTER2 128 07:31:30 7,97 331
342 6237 MONTAL NICOLAS MMASTER1 103 07:43:13 7,77 332
343 6043 BOUILHAC PASCAL MMASTER2 129 07:43:15 7,77 333
344 6044 DAIX RÉMI MMASTER1 104 07:43:17 7,77 334
345 6001 REMUSON JACQUES MMASTER3 55 07:47:00 7,71 335
346 6017 VIGNON GRÉGORY MSE 27 07:47:01 7,71 336
347 6065 OUILLON CHRISTIAN MMASTER1 105 07:47:22 7,70 337
348 6066 HACHELEF DAVY MMASTER1 106 07:49:00 7,68 338
349 6189 FEUGEAS AMEDEE MMASTER2 130 07:49:23 7,67 339
350 6141 DE ALMEIDA PASCAL MMASTER3 56 07:49:35 7,67 340
351 6026 BALUTEAUD DOMINIQUE MMASTER3 0 00:00:00 Abd Abd
352 6104 DUBROCA FABRICE MMASTER2 0 00:00:00 Abd Abd
353 6110 DELORME ANTOINE MSE 0 00:00:00 Abd Abd
354 6112 BÉNABEN LAURENT MMASTER3 0 00:00:00 Abd Abd
355 6119 FREYSSINIER JEAN MARC MMASTER2 0 00:00:00 Abd Abd
356 6180 CHABERT ALAIN MMASTER3 0 00:00:00 Abd Abd
357 6193 FAURE JEAN SÉBASTIEN MMASTER1 0 00:00:00 Abd Abd
358 6206 TARTARIN THOMAS MMASTER1 0 00:00:00 Abd Abd
359 6307 LAYGUES ALAIN MMASTER3 0 00:00:00 Abd Abd
360 6308 CAILLAUD COLIN MSE 0 00:00:00 Abd Abd
361 6320 SALCEDO YVES MMASTER2 0 00:00:00 Abd Abd
362 6366 CHABERT SEBASTIEN MMASTER1 0 00:00:00 Abd Abd
363 6399 CHAPUT MATHIEU MMASTER2 0 00:00:00 Abd Abd
364 6027 MINUIT JEAN MARY MMASTER3 0 06:08:20 Abd Abd
365 6263 COUDERT PARICKT MMASTER3 0 06:08:20 Abd Abd